DLH66T EDDH-EDDP

Flight info

Callsign DLH66T
Flight time N/A
Altitude 23000
Route AMLUH2D AMLUH M852 DENIX Z113 SAS Z88 UPDAT/N0440F270 T236 ADMOS/N0415F230 T959 KOJEC KOJEC1V
Aircraft A320/M-SDE3FGHIRWY/LB1

Departure

Time 2026-05-01 12:18
Airport Hamburg Helmut Schmidt Airport (EDDH)

Arrival

Time N/A
Airport Leipzig/Halle Airport (EDDP)
Time Latitude Longitude Altitude Speed Heading
2026-05-01 11:38 53.63373 10.00342 49 ft 0 kts 86°
2026-05-01 12:08 53.63372 10.00326 48 ft 2 kts 86°
2026-05-01 12:08 53.63371 10.00299 47 ft 2 kts 86°
2026-05-01 12:08 53.63370 10.00269 48 ft 2 kts 86°
2026-05-01 12:09 53.63369 10.00241 48 ft 2 kts 82°
2026-05-01 12:09 53.63362 10.00216 46 ft 2 kts 51°
2026-05-01 12:09 53.63351 10.00193 48 ft 2 kts 51°
2026-05-01 12:09 53.63339 10.00174 48 ft 2 kts
2026-05-01 12:10 53.63337 10.00173 48 ft 0 kts 349°
2026-05-01 12:14 53.63342 10.00171 48 ft 1 kts 349°
2026-05-01 12:14 53.63349 10.00168 46 ft 1 kts 348°
2026-05-01 12:14 53.63392 10.00156 48 ft 8 kts 353°
2026-05-01 12:15 53.63443 10.00151 47 ft 7 kts 357°
2026-05-01 12:15 53.63485 10.00147 48 ft 5 kts 356°
2026-05-01 12:15 53.63491 10.00146 48 ft 0 kts 356°
2026-05-01 12:16 53.63492 10.00146 48 ft 2 kts 356°
2026-05-01 12:16 53.63552 10.00097 50 ft 12 kts 323°
2026-05-01 12:17 53.63584 10.00053 52 ft 3 kts 318°
2026-05-01 12:17 53.63590 9.99946 52 ft 7 kts 243°
2026-05-01 12:17 53.63546 9.99850 50 ft 24 kts 231°
2026-05-01 12:17 53.63256 9.99268 47 ft 101 kts 230°
2026-05-01 12:18 53.62687 9.98118 43 ft 156 kts 230°
2026-05-01 12:18 53.61920 9.96572 417 ft 174 kts 229°
2026-05-01 12:18 53.61160 9.95023 1198 ft 173 kts 227°
2026-05-01 12:18 53.60366 9.93394 1788 ft 189 kts 229°
2026-05-01 12:19 53.59481 9.91581 2187 ft 210 kts 229°
2026-05-01 12:19 53.58534 9.89639 2963 ft 217 kts 227°
2026-05-01 12:19 53.57573 9.87675 3833 ft 218 kts 227°
2026-05-01 12:19 53.56347 9.86260 4619 ft 216 kts 191°
2026-05-01 12:20 53.54877 9.86444 4937 ft 214 kts 153°
2026-05-01 12:20 53.53695 9.87925 5004 ft 212 kts 140°
2026-05-01 12:20 53.52589 9.89551 5012 ft 211 kts 134°
2026-05-01 12:20 53.51779 9.91606 5010 ft 213 kts 114°
2026-05-01 12:21 53.51431 9.94148 5021 ft 234 kts 95°
2026-05-01 12:21 53.51406 9.96994 5017 ft 254 kts 94°
2026-05-01 12:21 53.51378 9.99951 5009 ft 259 kts 94°
2026-05-01 12:21 53.51332 10.02989 5004 ft 259 kts 98°
2026-05-01 12:22 53.50900 10.05902 5003 ft 257 kts 115°
2026-05-01 12:22 53.50100 10.08578 5010 ft 257 kts 118°
2026-05-01 12:22 53.49284 10.11249 5011 ft 257 kts 118°
2026-05-01 12:22 53.48474 10.13913 5007 ft 256 kts 118°
2026-05-01 12:23 53.47662 10.16582 5005 ft 257 kts 118°
2026-05-01 12:23 53.46849 10.19256 5000 ft 257 kts 118°
2026-05-01 12:23 53.46039 10.21924 5005 ft 256 kts 119°
2026-05-01 12:23 53.45240 10.24553 4999 ft 256 kts 118°
2026-05-01 12:24 53.44402 10.27185 4999 ft 257 kts 124°
2026-05-01 12:24 53.43319 10.29558 5031 ft 258 kts 135°
2026-05-01 12:24 53.41955 10.31575 5349 ft 260 kts 144°
2026-05-01 12:24 53.40420 10.33118 5392 ft 257 kts 155°
2026-05-01 12:25 53.38742 10.34139 5387 ft 258 kts 165°
2026-05-01 12:25 53.35262 10.35677 5389 ft 258 kts 164°
2026-05-01 12:25 53.33525 10.36457 5389 ft 258 kts 164°
2026-05-01 12:26 53.31810 10.37228 5393 ft 259 kts 164°
2026-05-01 12:26 53.28308 10.38805 5753 ft 267 kts 164°
2026-05-01 12:26 53.26529 10.39603 6842 ft 264 kts 163°
2026-05-01 12:27 53.24744 10.40401 7757 ft 266 kts 163°
2026-05-01 12:27 53.21125 10.42020 9591 ft 273 kts 163°
2026-05-01 12:28 53.17357 10.43703 10858 ft 298 kts 163°
2026-05-01 12:28 53.15272 10.44639 11125 ft 322 kts 163°
2026-05-01 12:28 53.10644 10.45471 12088 ft 349 kts 181°
2026-05-01 12:29 53.08203 10.45217 12841 ft 353 kts 181°
2026-05-01 12:29 53.05737 10.44970 13616 ft 356 kts 181°